TimeEDT,TemperatureF,Dew PointF,Humidity,Sea Level PressureIn,VisibilityMPH,Wind Direction,Wind SpeedMPH,Gust SpeedMPH,PrecipitationIn,Events,Conditions,WindDirDegrees,DateUTC
12:52 AM,73.0,64.0,73,29.93,10.0,SW,4.6,-,0.00,,Clear,220,2013-06-25 04:52:00
1:52 AM,72.0,62.1,71,29.96,10.0,WSW,9.2,-,N/A,,Clear,240,2013-06-25 05:52:00
2:52 AM,70.0,62.1,76,29.95,10.0,SSW,5.8,-,N/A,,Clear,200,2013-06-25 06:52:00
3:52 AM,69.1,63.0,81,29.95,10.0,WSW,6.9,-,N/A,,Partly Cloudy,250,2013-06-25 07:52:00
4:52 AM,68.0,63.0,84,29.96,10.0,West,6.9,-,N/A,,Partly Cloudy,260,2013-06-25 08:52:00
5:52 AM,70.0,64.9,84,29.96,10.0,WSW,10.4,-,N/A,,Clear,250,2013-06-25 09:52:00
6:52 AM,72.0,66.9,84,29.96,7.0,SW,11.5,-,N/A,,Partly Cloudy,230,2013-06-25 10:52:00
7:52 AM,73.0,66.9,81,29.99,8.0,WSW,13.8,-,N/A,,Clear,240,2013-06-25 11:52:00
8:52 AM,75.0,66.9,76,29.96,10.0,WSW,8.1,-,0.00,,Partly Cloudy,240,2013-06-25 12:52:00
9:52 AM,75.9,63.0,64,29.99,10.0,West,10.4,-,N/A,,Clear,270,2013-06-25 13:52:00
10:52 AM,80.1,66.0,62,29.95,10.0,WSW,4.6,-,N/A,,Clear,250,2013-06-25 14:52:00
11:52 AM,82.9,66.9,58,29.94,10.0,SW,10.4,-,N/A,,Clear,230,2013-06-25 15:52:00
12:52 PM,82.9,69.1,63,29.94,8.0,WSW,15.0,23.0,N/A,,Scattered Clouds,240,2013-06-25 16:52:00
1:52 PM,82.9,70.0,65,29.94,8.0,West,12.7,-,N/A,,Mostly Cloudy,270,2013-06-25 17:52:00
2:52 PM,86.0,69.1,57,29.91,10.0,West,12.7,21.9,N/A,,Scattered Clouds,260,2013-06-25 18:52:00
3:52 PM,87.1,69.1,55,29.85,10.0,SW,11.5,-,N/A,,Partly Cloudy,230,2013-06-25 19:52:00
4:52 PM,89.1,69.1,52,29.84,10.0,SW,15.0,26.5,N/A,,Clear,220,2013-06-25 20:52:00
5:52 PM,88.0,69.1,53,29.83,10.0,WSW,15.0,-,N/A,,Partly Cloudy,250,2013-06-25 21:52:00
6:52 PM,88.0,69.1,53,29.81,10.0,WSW,11.5,-,N/A,,Scattered Clouds,250,2013-06-25 22:52:00
7:52 PM,84.9,68.0,57,29.83,10.0,West,8.1,-,N/A,,Partly Cloudy,260,2013-06-25 23:52:00
8:50 PM,84.2,66.2,55,29.86,10.0,NW,11.5,17.3,N/A,Thunderstorm,Overcast,310,2013-06-26 00:50:00
8:52 PM,84.0,66.0,55,29.85,10.0,NNW,19.6,32.2,N/A,Thunderstorm,Overcast,330,2013-06-26 00:52:00
9:26 PM,71.6,66.2,83,29.87,8.0,WNW,11.5,-,0.04,Rain,Light Rain,290,2013-06-26 01:26:00
9:52 PM,71.1,66.0,84,29.87,10.0,WNW,10.4,-,0.04,,Scattered Clouds,290,2013-06-26 01:52:00
10:06 PM,71.6,64.4,78,29.88,10.0,WNW,9.2,-,N/A,Thunderstorm,Scattered Clouds,300,2013-06-26 02:06:00
10:45 PM,69.8,64.4,83,29.89,10.0,WNW,9.2,-,0.01,Rain,Light Rain,300,2013-06-26 02:45:00
10:52 PM,69.1,64.9,87,29.88,10.0,WNW,6.9,-,0.01,Rain,Light Rain,300,2013-06-26 02:52:00
11:17 PM,69.8,64.4,83,29.92,10.0,WNW,9.2,-,0.04,Rain-Thunderstorm,Light Rain,290,2013-06-26 03:17:00
11:52 PM,69.1,64.0,84,29.95,6.0,West,6.9,-,0.14,Rain-Thunderstorm,Light Thunderstorms and Rain,260,2013-06-26 03:52:00